Dewpoint
20 23 23 29 35 38 47 45 49 52 55 54 52 54 57 59 59 57 58 56 53 54 58 57 58 60 60 65 67 69 71 70 68 67 66 67 64 69 70 72 71 72 70 71
18 20 23 28 36 33 31 39 43 47 52 51 54 53 57 59 59 58 57 58 56 54 59 58 59 59 60 66 67 70 71 71 70 66 73 71 72 64 70 71 71 70 70 70
18 17 29 29 32 29 27 32 41 42 46 45 48 52 55 58 60 60 58 59 63 61 62 58 58 59 61 64 67 68 70 71 71 74 71 72 74 71 65 70 68 69 69 69
19 25 27 25 26 28 25 29 32 36 39 46 43 40 52 55 58 59 57 60 60 60 58 57 57 57 61 64 65 67 70 71 71 73 73 72 67 67 66 66 69 69 70 69
20 23 23 24 24 27 30 36 35 37 36 40 41 34 46 55 56 57 58 57 58 58 56 54 55 59 59 63 64 65 70 71 72 72 74 70 71 69 64 70 73 74 73 71
19 19 20 18 18 24 27 32 36 37 37 34 35 34 46 54 53 56 58 57 55 57 54 54 58 59 59 60 64 63 69 71 71 71 71 73 72 70 65 70 67 66 68 68
16 16 15 18 22 24 22 28 30 31 30 30 38 31 41 45 49 54 56 57 56 56 55 57 56 59 61 61 63 64 69 73 71 70 70 70 72 72 69 69 66 69 63 63
16 14 18 23 25 25 26 26 27 34 30 36 37 34 42 40 45 52 54 56 56 53 54 55 57 59 60 62 63 63 68 71 72 70 71 73 72 67 67 70 66 63 65 63
23 18 19 25 24 28 29 25 23 26 31 34 36 36 38 40 47 53 54 53 54 55 54 53 53 62 58 62 63 65 68 71 71 69 73 71 72 71 70 74 72 66 72 70
28 24 21 22 24 29 30 39 25 23 33 33 36 33 40 40 46 48 45 47 53 56 57 52 54 58 60 60 61 64 67 70 70 69 70 69 70 71 71 73 72 73 74 69
25 26 28 25 24 23 28 24 33 29 39 42 39 39 40 42 47 46 47 51 52 56 56 55 55 57 64 62 63 63 66 69 69 69 70 70 70 70 71 70 71 71 72 72
30 25 24 27 25 32 40 41 34 25 38 34 44 43 49 51 50 50 50 53 56 61 54 54 55 56 57 65 65 64 65 67 69 69 70 69 70 70 69 70 70 71 73 73
33 26 22 21 24 27 25 22 24 44 36 38 35 37 51 54 54 52 51 53 58 60 62 60 55 58 60 60 66 65 68 67 68 69 68 69 70 70 70 70 71 71 73 73
35 20 24 20 30 32 32 33 37 31 41 31 29 36 47 52 55 57 57 54 57 62 62 62 60 61 62 65 67 68 67 68 68 69 71 73 72 72 70 71 72 72 74 76
26 25 25 24 24 25 27 38 42 34 28 27 32 34 30 47 54 57 58 59 58 61 61 62 62 60 62 64 68 69 68 70 69 70 70 73 75 74 74 74 74 72 74 75
29 28 27 26 22 18 21 23 25 31 35 35 42 39 49 55 57 59 58 59 60 60 61 63 62 62 63 63 65 68 70 70 70 72 70 73 74 74 74 74 74 74 74 73
28 27 26 24 22 24 24 24 24 25 32 34 40 52 53 54 56 60 59 60 61 63 64 63 61 62 65 63 68 67 69 70 73 72 72 73 74 75 76 74 74 74 74 75
28 31 30 23 26 23 24 34 35 36 34 38 46 51 54 58 59 59 59 60 61 62 63 66 65 66 65 65 68 69 69 73 73 73 73 74 74 74 74 74 75 77 77 77
29 32 28 27 25 23 21 27 29 29 33 34 49 45 54 56 56 58 59 60 61 61 63 66 69 67 67 70 70 72 71 73 72 71 72 73 72 73 73 73 76 77 76 76
29 35 31 29 28 32 33 38 40 36 33 37 40 45 54 56 55 59 59 60 61 62 63 66 68 70 69 70 71 71 71 71 69 71 72 73 73 73 72 72 73 73 74 72
32 36 31 29 28 30 39 40 38 32 36 47 47 46 53 56 60 60 60 61 62 62 63 65 66 67 69 71 69 70 70 70 71 71 72 71 70 70 70 71 72 72 71 69
31 29 27 30 28 28 40 38 36 46 47 49 50 54 58 59 58 59 60 60 61 62 63 64 65 65 67 69 69 68 68 69 70 70 70 70 70 69 68 69 68 63 61 59
31 31 30 38 33 40 40 40 43 45 48 48 52 55 61 55 56 58 59 60 60 61 61 64 65 65 66 67 68 67 69 70 70 69 68 67 66 67 67 66 64 62 60 58
34 36 34 34 34 36 37 40 42 43 46 48 51 56 53 55 56 58 59 60 60 60 61 62 63 63 63 65 65 65 68 68 67 65 64 62 61 63 63 63 63 62 61 60
32 42 40 36 37 38 38 41 45 47 47 49 52 54 54 57 55 57 59 60 60 60 60 61 61 61 61 62 62 62 66 66 63 60 60 60 59 56 55 53 52 57 52 53
31 36 32 30 38 40 43 46 50 52 49 51 52 53 54 56 57 58 59 59 60 61 60 59 60 61 62 62 61 61 61 63 62 60 60 58 58 58 58 58 53 45 45 43
Lifted_Index
6 5 2 -0 -1 -1 -1 -1 -2 -2 -2 -2 -1 -0 -0 0 -0 -1 -1 -1 -1 -1 -1 -2 -2 -2 -3 -3 -3 -3 -4 -4 -4 -4 -4 -4 -4 -4 -4 -5 -5 -5 -5 -5
5 4 2 0 -0 -0 -1 -1 -2 -2 -2 -2 -1 -1 -0 0 -0 -1 -1 -1 -1 -1 -1 -2 -2 -2 -2 -3 -3 -3 -4 -4 -4 -4 -4 -4 -4 -4 -4 -5 -5 -5 -5 -4
3 3 2 1 1 1 -0 -1 -2 -2 -2 -2 -2 -2 -1 -0 -0 -0 -1 -1 -1 -1 -1 -1 -2 -2 -2 -3 -3 -3 -4 -4 -4 -4 -4 -4 -4 -4 -4 -4 -4 -5 -5 -5
3 3 3 2 1 1 -0 -1 -1 -2 -2 -2 -2 -2 -2 -1 -1 -0 -0 -0 -1 -1 -1 -1 -1 -1 -2 -2 -3 -3 -3 -4 -4 -4 -4 -4 -4 -3 -3 -4 -4 -5 -5 -5
3 4 3 3 2 1 -0 -1 -1 -2 -3 -3 -2 -2 -2 -2 -1 -1 -0 -0 -1 -1 -1 -1 -1 -1 -2 -2 -2 -3 -3 -4 -4 -4 -4 -4 -4 -3 -3 -4 -5 -5 -5 -5
4 4 4 3 2 2 1 -1 -2 -2 -3 -2 -2 -1 -2 -2 -2 -1 -1 -1 -1 -1 -1 -1 -1 -2 -2 -2 -2 -3 -3 -3 -4 -4 -4 -4 -4 -3 -3 -4 -4 -4 -4 -4
3 3 3 3 2 2 1 -0 -1 -1 -2 -1 -1 -1 -1 -1 -2 -2 -1 -1 -1 -1 -1 -1 -2 -2 -2 -2 -2 -2 -3 -3 -4 -3 -3 -4 -4 -3 -3 -3 -3 -3 -3 -3
1 1 2 2 2 1 1 -0 -1 -1 -1 -1 -1 -1 -1 -1 -1 -2 -2 -2 -2 -2 -1 -1 -1 -2 -2 -2 -2 -3 -3 -3 -4 -3 -3 -3 -3 -3 -3 -3 -3 -3 -3 -3
-0 0 1 2 1 1 0 -0 -0 -0 -1 -1 -1 -1 -1 -1 -2 -2 -2 -1 -2 -2 -1 -1 -1 -1 -2 -2 -3 -3 -3 -3 -3 -3 -3 -3 -3 -3 -3 -4 -3 -3 -3 -3
-0 -0 0 1 1 1 -0 -0 -1 -1 -1 -1 -1 -1 -1 -2 -2 -2 -1 -1 -2 -2 -2 -1 -1 -1 -1 -2 -2 -3 -3 -4 -4 -3 -3 -3 -3 -4 -4 -4 -4 -4 -4 -4
-0 -0 -0 0 0 0 -0 -0 -1 -1 -1 -1 -1 -1 -2 -2 -2 -2 -1 -1 -1 -2 -2 -1 -1 -1 -1 -2 -2 -3 -4 -4 -4 -4 -3 -4 -4 -4 -4 -4 -4 -4 -5 -5
-0 -0 -0 -0 -0 -0 -0 -0 -0 -1 -1 -1 -0 -1 -3 -4 -4 -2 -1 -0 -1 -1 -2 -1 -1 -1 -1 -2 -2 -3 -4 -4 -4 -4 -4 -4 -4 -4 -4 -4 -4 -4 -5 -5
1 0 -0 -0 -0 -0 -0 -0 -0 -0 -0 -0 -0 -2 -4 -5 -5 -4 -2 -0 -0 -1 -1 -2 -2 -2 -1 -2 -3 -3 -4 -4 -4 -4 -4 -4 -4 -4 -4 -4 -4 -4 -5 -5
2 1 1 0 0 -0 -0 -0 -0 -0 -0 -0 -0 -1 -4 -5 -6 -6 -4 -2 -1 -0 -1 -1 -2 -2 -2 -3 -3 -4 -4 -4 -4 -4 -5 -5 -5 -5 -5 -4 -5 -5 -5 -5
2 2 1 1 1 0 -0 -0 -1 -1 -1 -0 -0 -1 -3 -5 -6 -6 -5 -4 -3 -1 -0 -1 -2 -2 -2 -3 -4 -4 -4 -4 -4 -5 -5 -5 -5 -5 -5 -5 -5 -5 -5 -5
2 2 2 2 1 1 0 -0 -1 -1 -1 -1 -1 -2 -4 -5 -6 -6 -6 -5 -4 -3 -1 -2 -2 -2 -2 -3 -4 -5 -5 -5 -5 -5 -5 -5 -5 -5 -5 -5 -5 -6 -6 -6
2 2 2 2 1 0 -0 -1 -1 -1 -1 -1 -2 -3 -4 -5 -6 -6 -5 -5 -4 -4 -4 -4 -4 -4 -3 -4 -4 -5 -5 -5 -5 -5 -5 -6 -6 -6 -6 -5 -5 -6 -6 -6
2 2 1 1 0 -1 -1 -1 -1 -1 -1 -1 -2 -3 -4 -6 -6 -5 -5 -4 -4 -4 -5 -6 -6 -6 -5 -4 -5 -5 -5 -5 -6 -6 -6 -6 -6 -6 -6 -6 -6 -6 -6 -6
2 1 1 -0 -1 -1 -1 -1 -1 -1 -1 -1 -1 -2 -4 -5 -6 -5 -4 -4 -4 -5 -5 -6 -7 -7 -6 -5 -5 -5 -5 -5 -6 -6 -6 -6 -6 -6 -5 -5 -6 -6 -5 -5
1 1 -0 -1 -2 -2 -2 -1 -1 -1 -1 -1 -2 -3 -4 -5 -5 -5 -4 -4 -4 -5 -5 -6 -6 -6 -6 -6 -5 -5 -4 -5 -5 -5 -5 -6 -6 -5 -5 -5 -5 -5 -4 -4
-0 -0 -1 -1 -2 -2 -2 -2 -2 -2 -2 -3 -3 -4 -4 -5 -5 -4 -4 -4 -4 -4 -5 -5 -5 -6 -6 -6 -5 -4 -4 -4 -4 -4 -4 -4 -5 -4 -4 -3 -3 -2 -2 -1
-0 -0 -1 -2 -2 -2 -2 -2 -2 -3 -4 -4 -5 -5 -4 -4 -4 -4 -3 -3 -4 -4 -4 -4 -5 -5 -5 -5 -5 -5 -4 -4 -4 -3 -3 -3 -3 -2 -2 -1 -0 1 1 1
0 0 -0 -1 -1 -1 -2 -1 -2 -2 -4 -4 -5 -5 -4 -4 -4 -3 -3 -3 -3 -3 -4 -4 -4 -4 -4 -4 -4 -4 -5 -4 -4 -3 -3 -2 -2 -1 0 1 2 2 2 2
-0 -0 -0 -0 -0 -1 -1 -1 -2 -2 -3 -4 -5 -5 -4 -4 -4 -4 -3 -3 -3 -3 -3 -3 -3 -3 -3 -3 -3 -3 -4 -4 -3 -2 -1 -1 -1 -0 1 1 2 2 2 2
-1 -1 -0 -0 -0 -1 -1 -2 -2 -3 -3 -4 -5 -5 -5 -4 -4 -4 -3 -3 -2 -3 -3 -3 -3 -3 -3 -2 -3 -3 -3 -3 -2 -1 -1 -1 -0 -0 0 1 1 1 1 1
-1 -0 -0 -1 -1 -1 -1 -2 -3 -4 -4 -4 -5 -5 -5 -4 -4 -4 -3 -2 -2 -2 -3 -3 -3 -3 -3 -3 -3 -3 -3 -2 -2 -2 -1 -1 -1 -1 -1 -0 1 1 0 0